{"data":{"norad_id":58492,"intl_designator":"2023-186V","name":"STARLINK-30986","alt_names":[],"object_type":"PAYLOAD","status":"ACTIVE","operator":null,"country":"US","launch_date":"2023-12-03","launch_site_code":"AFETR","launch_vehicle":null,"mission":null,"orbit_class":"UNKNOWN","rcs_meters":null,"size_class":null,"mass_kg":null,"dimensions":null,"purposes":["comms"],"wikipedia_slug":null,"has_3d_model":false,"image_url":null,"decayed_at":null,"tle_current":{"epoch":"2026-05-24T23:15:40.288320Z","epoch_age_seconds":71678,"freshness":"FRESH","line1":"1 58492U 23186V   26144.96921630  .00000131  00000+0  14311-4 0  9999","line2":"2 58492  43.0042 352.7352 0001763 271.5781  88.4869 15.27575377137551","mean_motion":15.27575377,"eccentricity":0.0001763,"inclination_deg":43.0042,"raan_deg":352.7352,"arg_perigee_deg":271.5781,"mean_anomaly_deg":88.4869,"bstar":1.4311e-5,"rev_number":13755,"period_min":94.2670339992,"perigee_km":481.85330945043,"apogee_km":484.27256854892,"semimajor_km":6861.1999389997,"source":"CELESTRAK","updated_at":"2026-05-25T13:38:18.654020Z"}}}